Voltar ao catálogo

COSMOS 1275 DEB

AtivoPO
NORAD 13020·DEBRIS·🇷🇺 Russia

Lançado Jun 4, 1981 de Plesetsk Cosmodrome

Loading…

Próximas Passagens (próximas 24 horas)

TLE

AtualizadoSource: Space-Track

Época: Sep 14, 2026, 04:10 UTC

1 13020U 81053ES  26257.17368319  .00000439  00000-0  39182-3 0  9995
2 13020  82.6931 152.8446 0111426 268.3209 245.3921 13.79912955242658

Acompanhe COSMOS 1275 DEB em tempo real com AllMySat

Download on the App Store